DECAYED

OBJECT CN, 51068 (Decayed)

Orbit data source: Space-Track

You're viewing an Uncataloged Satellite

Recently launched and/or uncataloged satellites may have evolving metadata. Metadata may include but not limited to: Owner, Maufacturer, Bus, Motor, and Mission.

OBJECT CN, 51068 was a satellite in LEO that was launched on Thu, 13 Jan 2022 UTC via an FALCON 9 launch vehicle from the Air Force Eastern Test Range (AFETR). Unknown objects in Earth's orbit typically refer to objects detected orbiting the Earth but have not yet been identified or cataloged. These objects could be anything from previously untracked satellites, spent rocket stages, debris from satellite collisions, or even natural meteoroids temporarily captured by Earth's gravity. This object's orbit decayed before it could be identified.

Not visible in the next 10 days
Identifier
51068, 2022-002CN
Orbit
Decayed
Country
Flag of TBDTBD
Related business
None
Manufacturer
Unknown
Mission
Decayed Commercial Radar Imaging
Bus & Motor
Unknown
Mass
Unknown
Launch date (UTC)
2022-01-13 (5 years ago)
Launch vehicle
FALCON 9
Launch site
Air Force Eastern Test Range (AFETR)
Object type
Unknown
Shape & HBR
Box, 0.1 m
Radar Cross Section
0.015 m², Medium (>0.1 m² and < 1m²)

Expand to show TLE details & history
Last TLE update: 4 months ago

TLE from 4 months ago
0 OBJECT CN
1 51068U 22002CN  26087.87218396  .02787700  23919-5  10450-2 0  9995
2 51068  97.2857 173.5980 0010179 256.9690 103.0466 16.24296805234763
Epoch: 2026-03-28T20:55Z
TLE epoch observation values (Epoch: 2026-03-28T20:55:56.694Z)
Latitude
0.00008°
Longitude
33.32557°
Altitude
212.665 km
Speed
7.778 km/s
True Right ascension
11h 34m 23s
True Declination
0° 00' 00"
Sunlit
Object was in full shadow at epoch
Visualization orbit readout
Latitude
Unknown
Longitude
Unknown
Altitude
Unknown
Speed
Unknown
Apparent Right ascension
Unknown
Apparent Declination
Unknown
Sunlit
N/A
Visualization observer readout
Local Sidereal Time
13:26:29
Azimuth
Unknown
Elevation
Unknown
Doppler factor
Unknown
Orbital elements
Apogee altitude
211.435 km
Perigee altitude
198.034 km
Semi-major axis
6,582.871 km
Eccentricity
0.00102
Inclination
97.2857°
RAAN
173.598°
Arg. of periapsis
256.969°
True anomaly
103.1602°
Mean anomaly
103.0466°
Eccentric anomaly
103.1034°
Mean motion
4.06369 °/min
Orbital period
88.59 mins
BSTAR
0.001045
Loading maneuver chart data...
Computing Atmospheric mass density...

Documentation

Showing up to 5 results
|